• In Hungary
  • List of Countries
  • For 7 days
  • Water Temperature
  • Satellite Maps
  • Weather Map
  • News
  • Weather Widgets
  • user-avatar
    Login

    Hourly Weather Innsbruck

    Today, 17 August, Thursday

    Time Temperature Precipitation Wind Pressure Humidity
    00:00 +8°C° 0.1 mm 1 mps 601 mmHg 91%
    01:00 +8°C° 0 mm 1 mps 600 mmHg 90%
    02:00 +8°C° 0 mm 1 mps 600 mmHg 90%
    03:00 +8°C° 0 mm 1 mps 600 mmHg 90%
    04:00 +7°C° 0 mm 1 mps 600 mmHg 90%
    05:00 +9°C° 0 mm 1 mps 600 mmHg 87%
    06:00 +10°C° 0 mm 1 mps 601 mmHg 83%
    07:00 +12°C° 0 mm 1 mps 602 mmHg 79%
    08:00 +13°C° 0 mm 0 mps 603 mmHg 69%
    09:00 +15°C° 0 mm 0 mps 604 mmHg 60%
    10:00 +17°C° 0 mm 0 mps 604 mmHg 51%
    11:00 +18°C° 0.1 mm 0 mps 604 mmHg 49%
    12:00 +20°C° 0.1 mm 1 mps 605 mmHg 47%
    13:00 +21°C° 0 mm 1 mps 605 mmHg 45%
    14:00 +20°C° 0.1 mm 1 mps 604 mmHg 48%
    15:00 +20°C° 0.1 mm 1 mps 604 mmHg 50%
    16:00 +19°C° 0.1 mm 1 mps 604 mmHg 53%
    17:00 +18°C° 0.3 mm 1 mps 603 mmHg 63%
    18:00 +15°C° 0.3 mm 1 mps 602 mmHg 73%
    19:00 +12°C° 0.3 mm 0 mps 602 mmHg 84%
    20:00 +12°C° 0.1 mm 1 mps 601 mmHg 86%
    21:00 +11°C° 0.1 mm 1 mps 601 mmHg 88%
    22:00 +10°C° 0.1 mm 1 mps 601 mmHg 91%
    23:00 +10°C° 0 mm 1 mps 601 mmHg 90%

    Tomorrow, 18 August, Friday

    Time Temperature Precipitation Wind Pressure Humidity
    00:00 +9°C° 0 mm 1 mps 601 mmHg 90%
    01:00 +9°C° 0 mm 1 mps 601 mmHg 90%
    02:00 +9°C° 0 mm 1 mps 600 mmHg 90%
    03:00 +9°C° 0 mm 1 mps 600 mmHg 90%
    04:00 +8°C° 0 mm 2 mps 600 mmHg 90%
    05:00 +9°C° 0 mm 2 mps 600 mmHg 88%
    06:00 +10°C° 0 mm 2 mps 601 mmHg 86%
    07:00 +12°C° 0 mm 2 mps 601 mmHg 84%
    08:00 +14°C° 0 mm 2 mps 602 mmHg 75%
    09:00 +17°C° 0 mm 2 mps 603 mmHg 66%
    10:00 +19°C° 0 mm 2 mps 604 mmHg 57%
    11:00 +20°C° 0 mm 2 mps 604 mmHg 54%
    12:00 +21°C° 0 mm 2 mps 604 mmHg 51%
    13:00 +21°C° 0 mm 2 mps 604 mmHg 48%
    14:00 +20°C° 0.6 mm 2 mps 603 mmHg 54%
    15:00 +19°C° 0.6 mm 2 mps 602 mmHg 60%
    16:00 +18°C° 0.6 mm 2 mps 601 mmHg 66%
    17:00 +17°C° 1.4 mm 2 mps 601 mmHg 73%
    18:00 +15°C° 1.4 mm 2 mps 600 mmHg 80%
    19:00 +14°C° 1.4 mm 1 mps 600 mmHg 87%
    20:00 +13°C° 1 mm 1 mps 600 mmHg 90%
    21:00 +12°C° 1 mm 2 mps 600 mmHg 93%
    22:00 +10°C° 1 mm 2 mps 599 mmHg 96%
    23:00 +10°C° 2.2 mm 2 mps 599 mmHg 96%

    Day after tomorrow, 19 August, Saturday

    Time Temperature Precipitation Wind Pressure Humidity
    00:00 +11°C° 2.2 mm 1 mps 599 mmHg 97%
    01:00 +10°C° 2.2 mm 1 mps 599 mmHg 97%
    02:00 +10°C° 5.6 mm 1 mps 599 mmHg 97%
    03:00 +8°C° 5.6 mm 2 mps 598 mmHg 97%
    04:00 +8°C° 5.6 mm 2 mps 598 mmHg 97%
    05:00 +7°C° 2.8 mm 2 mps 598 mmHg 97%
    06:00 +7°C° 2.8 mm 2 mps 598 mmHg 97%
    07:00 +6°C° 2.8 mm 2 mps 598 mmHg 97%
    08:00 +7°C° 1.2 mm 2 mps 599 mmHg 95%
    09:00 +7°C° 1.2 mm 2 mps 599 mmHg 94%
    10:00 +7°C° 1.2 mm 2 mps 599 mmHg 92%
    11:00 +8°C° 0.3 mm 2 mps 600 mmHg 86%
    12:00 +9°C° 0.3 mm 2 mps 600 mmHg 80%
    13:00 +10°C° 0.3 mm 2 mps 600 mmHg 75%
    14:00 +10°C° 0.1 mm 2 mps 600 mmHg 70%
    15:00 +12°C° 0.1 mm 2 mps 601 mmHg 65%
    16:00 +12°C° 0.1 mm 2 mps 601 mmHg 61%
    17:00 +10°C° 0.1 mm 2 mps 601 mmHg 68%
    18:00 +9°C° 0.1 mm 2 mps 600 mmHg 76%
    19:00 +7°C° 0.1 mm 2 mps 600 mmHg 84%
    20:00 +7°C° 0.1 mm 2 mps 600 mmHg 87%
    21:00 +6°C° 0.1 mm 2 mps 600 mmHg 90%
    22:00 +6°C° 0.1 mm 1 mps 600 mmHg 93%
    23:00 +6°C° 0 mm 1 mps 600 mmHg 94%

    20 August, Sunday

    Time Temperature Precipitation Wind Pressure Humidity
    00:00 +5°C° 0 mm 1 mps 600 mmHg 94%
    01:00 +5°C° 0 mm 1 mps 599 mmHg 95%
    02:00 +4°C° 0 mm 1 mps 599 mmHg 95%
    03:00 +4°C° 0 mm 1 mps 599 mmHg 95%
    04:00 +3°C° 0 mm 1 mps 599 mmHg 95%
    05:00 +4°C° 0 mm 1 mps 599 mmHg 93%
    06:00 +5°C° 0 mm 1 mps 600 mmHg 90%
    07:00 +5°C° 0 mm 1 mps 600 mmHg 88%
    08:00 +7°C° 0 mm 1 mps 601 mmHg 78%
    09:00 +8°C° 0 mm 2 mps 602 mmHg 68%
    10:00 +10°C° 0 mm 2 mps 603 mmHg 58%
    11:00 +12°C° 0 mm 2 mps 603 mmHg 53%
    12:00 +13°C° 0 mm 2 mps 603 mmHg 48%
    13:00 +14°C° 0 mm 2 mps 603 mmHg 43%
    14:00 +14°C° 0 mm 2 mps 603 mmHg 44%
    15:00 +13°C° 0 mm 2 mps 603 mmHg 45%
    16:00 +12°C° 0 mm 3 mps 603 mmHg 46%
    17:00 +10°C° 0 mm 2 mps 602 mmHg 57%
    18:00 +8°C° 0 mm 2 mps 602 mmHg 68%
    19:00 +7°C° 0 mm 2 mps 601 mmHg 78%
    20:00 +6°C° 0 mm 1 mps 601 mmHg 83%
    21:00 +5°C° 0 mm 1 mps 601 mmHg 87%
    22:00 +4°C° 0 mm 1 mps 600 mmHg 92%
    23:00 +4°C° 0 mm 1 mps 600 mmHg 91%

    21 August, Monday

    Time Temperature Precipitation Wind Pressure Humidity
    00:00 +4°C° 0 mm 1 mps 600 mmHg 91%
    01:00 +3°C° 0 mm 1 mps 600 mmHg 91%
    02:00 +3°C° 0 mm 1 mps 600 mmHg 90%
    03:00 +3°C° 0 mm 1 mps 600 mmHg 88%
    04:00 +3°C° 0 mm 1 mps 599 mmHg 87%
    05:00 +4°C° 0 mm 1 mps 600 mmHg 81%
    06:00 +5°C° 0 mm 1 mps 601 mmHg 75%
    07:00 +7°C° 0 mm 1 mps 601 mmHg 70%
    08:00 +9°C° 0 mm 1 mps 602 mmHg 62%
    09:00 +11°C° 0 mm 1 mps 603 mmHg 54%
    10:00 +14°C° 0 mm 1 mps 604 mmHg 47%
    11:00 +15°C° 0 mm 2 mps 604 mmHg 46%
    12:00 +16°C° 0 mm 2 mps 604 mmHg 45%
    13:00 +16°C° 0 mm 2 mps 604 mmHg 45%
    14:00 +16°C° 0 mm 2 mps 604 mmHg 48%
    15:00 +16°C° 0 mm 3 mps 604 mmHg 51%
    16:00 +14°C° 0 mm 3 mps 603 mmHg 55%
    17:00 +13°C° 0 mm 2 mps 603 mmHg 65%
    18:00 +12°C° 0 mm 2 mps 602 mmHg 75%
    19:00 +10°C° 0 mm 1 mps 601 mmHg 85%
    20:00 +9°C° 0 mm 1 mps 601 mmHg 88%
    21:00 +8°C° 0 mm 1 mps 601 mmHg 91%
    22:00 +6°C° 0 mm 1 mps 600 mmHg 94%
    23:00 +6°C° 0 mm 1 mps 600 mmHg 93%

    22 August, Tuesday

    Time Temperature Precipitation Wind Pressure Humidity
    00:00 +6°C° 0 mm 1 mps 600 mmHg 93%
    01:00 +6°C° 0 mm 1 mps 599 mmHg 92%
    02:00 +5°C° 0 mm 1 mps 599 mmHg 91%
    03:00 +5°C° 0 mm 1 mps 599 mmHg 90%
    04:00 +5°C° 0 mm 1 mps 599 mmHg 89%
    05:00 +7°C° 0 mm 1 mps 599 mmHg 84%
    06:00 +8°C° 0 mm 1 mps 600 mmHg 79%
    07:00 +10°C° 0 mm 1 mps 601 mmHg 74%
    08:00 +12°C° 0 mm 1 mps 602 mmHg 64%
    09:00 +15°C° 0 mm 1 mps 603 mmHg 55%
    10:00 +18°C° 0 mm 1 mps 604 mmHg 45%
    11:00 +19°C° 0 mm 1 mps 604 mmHg 43%
    12:00 +20°C° 0 mm 1 mps 604 mmHg 40%
    13:00 +21°C° 0 mm 1 mps 604 mmHg 38%
    14:00 +21°C° 0 mm 1 mps 603 mmHg 40%
    15:00 +21°C° 0 mm 1 mps 603 mmHg 42%
    16:00 +20°C° 0 mm 1 mps 602 mmHg 44%
    17:00 +18°C° 0 mm 1 mps 601 mmHg 57%
    18:00 +14°C° 0 mm 1 mps 600 mmHg 70%
    19:00 +12°C° 0 mm 1 mps 599 mmHg 82%
    20:00 +11°C° 0 mm 1 mps 599 mmHg 84%
    21:00 +10°C° 0 mm 1 mps 599 mmHg 85%
    22:00 +9°C° 0 mm 2 mps 599 mmHg 87%
    23:00 +8°C° 0 mm 2 mps 598 mmHg 87%
    Show more